DW6064 Weather Reports


time (UTC)temp
F
wind
direction
speed
knots
gust
knots
rain 1hr
in
rain 24hr
in
rain mn
in
humidity
%
barometer
mb
20260902110037 72 17 1.7 2.6 0.00 0.01 0.00 87 1017.5
20260902105534 73 329 0.0 1.7 0.00 0.01 0.00 87 1017.7
20260902105033 73 329 0.0 1.7 0.00 0.01 0.00 87 1017.7
20260902104551 73 329 0.9 4.3 0.00 0.01 0.00 86 1017.8
20260902104053 73 329 1.7 4.3 0.00 0.01 0.00 86 1017.8
20260902103551 73 316 1.7 2.6 0.00 0.01 0.00 86 1017.7
20260902103033 73 165 0.0 2.6 0.00 0.01 0.00 86 1017.6
20260902102532 73 165 0.9 2.6 0.00 0.01 0.00 86 1017.6
20260902102030 73 165 1.7 3.5 0.00 0.01 0.00 86 1017.6
20260902101553 73 165 0.0 1.7 0.00 0.01 0.00 86 1017.6
20260902101051 73 165 0.0 0.0 0.00 0.01 0.00 85 1017.6
20260902100527 73 165 0.0 0.0 0.00 0.01 0.00 85 1017.6
20260902100027 73 165 0.0 0.0 0.00 0.01 0.00 85 1017.7
20260902095543 73 165 0.0 0.0 0.00 0.01 0.00 85 1017.7
20260902095042 73 165 0.0 0.0 0.00 0.01 0.00 85 1017.6
20260902094604 73 165 0.0 2.6 0.00 0.01 0.00 85 1017.5
20260902094042 73 165 0.9 4.3 0.00 0.01 0.00 85 1017.5
20260902093539 73 165 2.6 4.3 0.00 0.01 0.00 85 1017.5
20260902093038 73 165 1.7 4.3 0.00 0.01 0.00 85 1017.4
20260902092533 73 165 3.5 4.3 0.00 0.01 0.00 86 1017.4
20260902092034 73 165 2.6 5.2 0.00 0.01 0.00 86 1017.6
20260902091530 73 164 2.6 5.2 0.00 0.01 0.00 86 1017.6
20260902091055 73 150 2.6 7.0 0.00 0.01 0.00 86 1017.5
20260902090531 73 151 4.3 8.7 0.00 0.01 0.00 86 1017.5
20260902090034 73 147 6.1 8.7 0.00 0.01 0.00 86 1017.4
20260902085533 73 139 4.3 7.8 0.00 0.01 0.00 86 1017.5
20260902085052 73 123 4.3 7.8 0.00 0.01 0.00 86 1017.4
20260902084529 73 144 4.3 7.0 0.00 0.01 0.00 86 1017.3
20260902084048 73 143 3.5 6.1 0.00 0.01 0.00 86 1017.3
20260902083525 73 140 2.6 6.1 0.00 0.01 0.00 86 1017.4
20260902083050 73 153 2.6 5.2 0.00 0.01 0.00 86 1017.3
20260902082526 73 146 0.9 4.3 0.00 0.01 0.00 86 1017.4
20260902082026 73 146 3.5 4.3 0.00 0.01 0.00 85 1017.3
20260902081542 73 149 3.5 6.1 0.00 0.01 0.00 85 1017.3
20260902081040 73 146 3.5 6.1 0.00 0.01 0.00 85 1017.2
20260902080537 73 128 1.7 5.2 0.00 0.01 0.00 86 1017.2
20260902080037 73 144 0.9 3.5 0.00 0.01 0.00 85 1017.3
20260902075535 73 130 2.6 3.5 0.00 0.01 0.00 85 1017.3
20260902075035 74 130 0.9 2.6 0.00 0.01 0.00 85 1017.2
20260902074532 74 275 0.9 2.6 0.00 0.01 0.00 85 1017.2
20260902074057 74 275 0.0 0.0 0.00 0.01 0.00 85 1017.1
20260902073557 74 275 0.0 0.0 0.00 0.01 0.00 85 1017.1
20260902073101 74 275 0.0 0.0 0.00 0.01 0.00 86 1017.0
20260902072537 74 275 0.0 0.0 0.00 0.01 0.00 86 1017.1
20260902072041 74 275 0.0 0.0 0.00 0.01 0.00 85 1017.0
20260902071538 74 275 0.0 1.7 0.00 0.01 0.00 85 1017.0
20260902071103 74 275 0.0 1.7 0.00 0.01 0.00 85 1017.0
20260902070604 74 275 0.9 1.7 0.00 0.01 0.00 85 1017.0
20260902070042 74 275 0.0 0.0 0.00 0.01 0.00 84 1017.1
20260902065537 74 275 0.0 0.0 0.00 0.01 0.00 85 1017.1
20260902065037 74 275 0.0 0.0 0.00 0.01 0.00 84 1017.1
20260902064559 74 275 0.0 0.0 0.00 0.01 0.00 84 1017.0
20260902064037 74 275 0.0 0.0 0.00 0.01 0.00 83 1017.0
20260902063559 75 275 0.0 0.0 0.00 0.01 0.00 84 1016.9
20260902063037 75 275 0.0 0.0 0.00 0.01 0.00 83 1017.0
20260902062534 75 275 0.0 0.0 0.00 0.01 0.00 83 1017.1
20260902062033 75 275 0.0 0.0 0.00 0.01 0.00 83 1017.2
20260902061035 75 275 0.0 0.0 0.00 0.01 0.00 82 1017.2
20260902060532 75 275 0.0 0.0 0.00 0.01 0.00 82 1017.3
20260902060031 75 275 0.0 0.0 0.00 0.01 0.00 82 1017.3
20260902055548 75 275 0.0 0.0 0.00 0.01 0.00 81 1017.3
20260902055025 75 275 0.0 0.0 0.00 0.01 0.00 81 1017.4
20260902054525 76 275 0.0 0.9 0.00 0.01 0.00 81 1017.5
20260902054025 76 275 0.0 0.9 0.00 0.01 0.00 80 1017.6
20260902053542 76 275 0.0 0.9 0.00 0.01 0.00 80 1017.6
20260902053042 76 275 0.0 0.0 0.00 0.01 0.00 80 1017.7
20260902052539 76 275 0.0 1.7 0.00 0.01 0.00 80 1017.7
20260902052039 76 275 0.0 2.6 0.00 0.01 0.00 80 1017.7
20260902051601 76 275 1.7 2.6 0.00 0.01 0.00 79 1017.7
20260902051040 77 275 0.0 2.6 0.00 0.01 0.00 79 1017.7
20260902050536 77 324 0.9 3.5 0.00 0.01 0.00 78 1017.8
20260902050036 77 324 1.7 3.5 0.00 0.01 0.00 78 1017.9
20260902045533 77 326 1.7 3.5 0.00 0.01 0.00 77 1017.9
20260902045033 77 294 1.7 4.3 0.00 0.01 0.00 77 1017.9
20260902044530 78 313 2.6 4.3 0.00 0.01 0.00 77 1017.8
20260902044029 78 321 0.9 4.3 0.00 0.01 0.00 76 1017.8
20260902043545 78 330 2.6 6.1 0.00 0.01 0.00 75 1017.6
20260902043043 78 313 2.6 6.1 0.00 0.01 0.00 75 1017.6
20260902042524 78 5 0.0 2.6 0.00 0.01 0.00 74 1017.4
20260902042044 78 5 0.0 4.3 0.00 0.01 0.00 74 1017.4
20260902041541 79 348 0.9 4.3 0.00 0.01 0.00 74 1017.4
20260902041040 79 344 1.7 6.1 0.00 0.01 0.00 74 1017.4
20260902040537 79 347 2.6 7.8 0.00 0.01 0.00 73 1017.5
20260902040036 79 36 0.9 7.8 0.00 0.01 0.00 73 1017.4
20260902035559 79 9 1.7 10.4 0.00 0.01 0.01 73 1017.5
20260902035037 79 71 3.5 15.6 0.00 0.01 0.01 73 1017.5
20260902034535 79 36 4.3 18.2 0.00 0.01 0.01 72 1017.5
20260902034034 80 49 7.8 19.1 0.00 0.01 0.01 72 1017.5
20260902033531 80 40 7.8 20.0 0.00 0.01 0.01 71 1017.3
20260902033031 81 74 11.3 21.7 0.00 0.01 0.01 71 1017.2
20260902032552 81 344 8.7 21.7 0.00 0.01 0.01 71 1017.1
20260902032055 81 50 3.5 9.6 0.00 0.01 0.01 73 1017.0
20260902031556 82 346 5.2 9.6 0.00 0.01 0.01 73 1016.7
20260902031035 82 182 0.0 3.5 0.00 0.01 0.01 72 1016.5
20260902030532 82 182 0.9 3.5 0.00 0.01 0.01 72 1016.4
20260902030057 82 171 3.5 4.3 0.00 0.01 0.01 71 1016.2
20260902025559 82 226 1.7 2.6 0.00 0.01 0.01 71 1016.1
20260902025037 82 226 0.0 1.7 0.00 0.01 0.01 71 1016.1
20260902024539 82 207 0.0 3.5 0.00 0.01 0.01 71 1016.0
20260902024038 82 189 0.0 3.5 0.00 0.01 0.01 70 1015.9
20260902023601 82 189 2.6 2.6 0.00 0.01 0.01 70 1015.8
20260902023103 83 189 0.0 2.6 0.00 0.01 0.01 70 1015.7
20260902022539 83 211 0.9 4.3 0.00 0.01 0.01 70 1015.6
20260902022103 83 202 1.7 5.2 0.00 0.01 0.01 70 1015.4
20260902021604 83 202 1.7 6.1 0.00 0.01 0.01 69 1015.2
20260902021042 83 187 4.3 6.1 0.00 0.01 0.01 69 1015.0
20260902020538 83 208 1.7 6.1 0.00 0.01 0.01 69 1015.1
20260902020037 84 183 2.6 4.3 0.00 0.01 0.01 69 1015.2
20260902015534 84 178 3.5 6.1 0.00 0.01 0.01 68 1015.2
20260902015033 84 196 3.5 7.0 0.00 0.01 0.01 68 1015.4
20260902014551 84 215 3.5 7.0 0.00 0.01 0.01 68 1015.4
20260902014049 84 205 3.5 7.0 0.00 0.01 0.01 68 1015.3
20260902013525 84 187 4.3 7.0 0.00 0.01 0.01 68 1015.4
20260902013044 84 217 1.7 3.5 0.00 0.01 0.01 68 1015.4
20260902012541 84 211 0.0 1.7 0.00 0.01 0.01 69 1015.5
20260902012041 84 211 0.0 2.6 0.00 0.01 0.01 68 1015.5
20260902011537 85 211 0.9 2.6 0.00 0.01 0.01 68 1015.5
20260902011036 85 183 1.7 2.6 0.00 0.01 0.01 68 1015.5
20260902010537 85 183 0.9 2.6 0.00 0.01 0.01 69 1015.5
20260902010101 85 183 0.0 2.6 0.00 0.01 0.01 68 1015.4
20260902005535 85 183 0.0 0.9 0.00 0.01 0.01 68 1015.4
20260902005033 85 183 0.0 3.5 0.00 0.01 0.01 67 1015.2
20260902004531 85 183 0.9 3.5 0.00 0.01 0.01 67 1014.9
20260902004028 85 232 0.9 4.3 0.00 0.01 0.01 67 1014.6
20260902003531 85 262 1.7 7.0 0.00 0.01 0.01 67 1014.4
20260902003030 85 255 2.6 7.8 0.00 0.01 0.01 67 1014.2
20260902002548 86 260 2.6 7.8 0.00 0.01 0.01 66 1014.2
20260902002026 86 242 2.6 7.8 0.00 0.01 0.01 65 1014.2
20260902001543 86 294 1.7 7.8 0.00 0.01 0.01 65 1014.2
20260902001043 86 235 3.5 7.8 0.00 0.01 0.01 65 1014.1
20260902000537 86 240 2.6 7.8 0.00 0.01 0.01 65 1014.0
20260902000036 87 215 1.7 7.8 0.00 0.01 0.01 64 1014.0
20260901235533 87 259 3.5 7.8 0.00 0.01 0.01 64 1014.0
20260901235033 87 246 2.6 6.1 0.00 0.01 0.01 63 1013.9
20260901234529 88 233 3.5 8.7 0.00 0.01 0.01 63 1013.8
20260901234032 88 256 3.5 12.2 0.00 0.01 0.01 63 1013.8
20260901233553 88 269 3.5 12.2 0.00 0.01 0.01 62 1013.7
20260901233031 88 259 1.7 9.6 0.00 0.01 0.01 63 1013.7
20260901232527 89 225 2.6 6.1 0.00 0.01 0.01 62 1013.8
20260901232026 89 236 0.9 6.1 0.00 0.01 0.01 62 1013.8
20260901231543 90 232 0.9 7.0 0.00 0.01 0.01 61 1013.7
20260901231042 90 252 2.6 7.0 0.00 0.01 0.01 60 1013.7
20260901230605 90 257 3.5 6.1 0.00 0.01 0.01 60 1013.7
20260901230043 90 242 2.6 7.0 0.00 0.01 0.01 59 1013.8
20260901225541 91 242 3.5 7.0 0.00 0.01 0.01 59 1013.8
20260901225040 91 242 0.9 5.2 0.00 0.01 0.01 59 1013.8
20260901224537 91 254 2.6 6.1 0.00 0.01 0.01 58 1013.8
20260901224037 92 240 0.9 5.2 0.00 0.01 0.01 58 1013.8
20260901223534 92 245 0.9 5.2 0.00 0.01 0.01 57 1013.9
20260901223031 92 234 0.9 5.2 0.00 0.01 0.01 57 1013.9
20260901222529 92 238 0.9 6.1 0.00 0.01 0.01 57 1013.8
20260901222029 93 242 1.7 8.7 0.00 0.01 0.01 57 1013.7
20260901221531 93 249 3.5 8.7 0.00 0.01 0.01 57 1013.7
20260901221055 93 229 1.7 7.0 0.00 0.01 0.01 57 1013.8
20260901220531 93 242 1.7 7.0 0.00 0.01 0.01 57 1013.8
20260901220053 93 255 1.7 7.8 0.00 0.01 0.01 57 1013.8
20260901215529 93 250 2.6 7.8 0.00 0.01 0.01 57 1013.8
20260901215028 93 242 3.5 7.8 0.00 0.01 0.01 57 1013.9
20260901214524 93 217 3.5 8.7 0.00 0.01 0.01 57 1013.8
20260901214044 93 254 3.5 8.7 0.00 0.01 0.01 56 1013.8
20260901213540 94 213 3.5 8.7 0.00 0.01 0.01 55 1013.8
20260901213040 94 246 3.5 10.4 0.00 0.01 0.01 54 1013.8
20260901212602 95 274 4.3 10.4 0.00 0.01 0.01 54 1013.8
20260901212105 95 250 2.6 8.7 0.00 0.01 0.01 53 1013.9
20260901211540 96 244 5.2 12.2 0.00 0.01 0.01 52 1014.0
20260901211039 96 317 5.2 12.2 0.00 0.01 0.01 52 1013.9
20260901210535 96 265 5.2 8.7 0.00 0.01 0.01 51 1013.9
20260901210034 96 261 2.6 8.7 0.00 0.01 0.01 52 1013.9
20260901205558 97 246 4.3 8.7 0.00 0.01 0.01 51 1013.8
20260901205036 98 224 4.3 9.6 0.00 0.01 0.01 49 1013.8
20260901204534 98 281 5.2 13.0 0.00 0.01 0.01 49 1013.9
20260901204033 98 284 3.5 13.0 0.00 0.01 0.01 49 1014.0
20260901203534 98 254 6.1 13.0 0.00 0.01 0.01 48 1013.9
20260901203034 98 258 3.5 9.6 0.00 0.01 0.01 50 1013.9
20260901202531 98 294 5.2 9.6 0.00 0.01 0.01 49 1014.0
20260901202031 98 294 4.3 12.2 0.00 0.01 0.01 49 1014.0
20260901201529 98 240 5.2 13.0 0.00 0.01 0.01 48 1014.0
20260901201028 98 277 7.8 13.0 0.00 0.01 0.01 48 1014.1
20260901200547 98 269 6.1 11.3 0.00 0.01 0.01 48 1014.1
20260901200026 98 245 6.1 11.3 0.00 0.01 0.01 49 1014.0
20260901195542 97 249 4.3 14.8 0.00 0.01 0.01 51 1014.0
20260901195043 97 261 6.1 14.8 0.00 0.01 0.01 51 1014.1
20260901194540 97 213 7.8 12.2 0.00 0.01 0.01 50 1014.1
20260901194040 97 241 6.1 15.6 0.00 0.01 0.01 49 1014.2
20260901193536 97 269 9.6 15.6 0.00 0.01 0.01 49 1014.2
20260901193035 97 277 7.8 13.0 0.00 0.01 0.01 51 1014.3
20260901192532 96 227 7.0 13.0 0.00 0.01 0.01 51 1014.3
20260901192035 96 294 5.2 13.9 0.00 0.01 0.01 51 1014.3
20260901191532 96 216 6.1 13.9 0.00 0.01 0.01 53 1014.5
20260901191030 96 261 8.7 13.9 0.00 0.01 0.01 53 1014.5
20260901190528 96 340 5.2 13.0 0.00 0.01 0.01 54 1014.4
20260901190052 96 245 5.2 13.0 0.00 0.01 0.01 55 1014.5
20260901185528 95 225 3.5 11.3 0.00 0.01 0.01 56 1014.7
20260901185053 95 259 4.3 11.3 0.00 0.01 0.01 55 1014.9
20260901184528 95 249 5.2 12.2 0.00 0.01 0.01 57 1014.9
20260901184027 95 234 6.1 12.2 0.00 0.01 0.01 56 1015.0
20260901183524 95 279 4.3 12.2 0.00 0.01 0.01 58 1015.0
20260901183043 94 240 7.0 12.2 0.00 0.01 0.01 58 1015.0
20260901182541 94 212 4.3 10.4 0.00 0.01 0.01 57 1014.9
20260901182040 95 255 4.3 11.3 0.00 0.01 0.01 57 1015.1
20260901181538 94 266 2.6 12.2 0.00 0.01 0.01 58 1015.2
20260901181103 94 247 6.1 12.2 0.00 0.01 0.01 60 1015.3
20260901180540 93 245 7.0 11.3 0.00 0.01 0.01 58 1015.4
20260901180038 93 244 4.3 11.3 0.00 0.01 0.01 58 1015.4
20260901175539 94 212 2.6 11.3 0.00 0.01 0.01 57 1015.5
20260901175103 94 227 4.3 16.5 0.00 0.01 0.01 58 1015.5
20260901174540 94 240 7.0 16.5 0.00 0.01 0.01 59 1015.6
20260901174040 93 279 2.6 14.8 0.00 0.01 0.01 60 1015.6
20260901173601 93 241 4.3 11.3 0.00 0.01 0.01 60 1015.6
20260901173039 92 183 2.6 13.0 0.00 0.01 0.01 61 1015.4
20260901172538 93 204 7.8 13.0 0.00 0.01 0.01 59 1015.4
20260901172035 92 190 2.6 8.7 0.00 0.01 0.01 63 1015.5
20260901171532 92 257 3.5 8.7 0.00 0.01 0.01 61 1015.5
20260901171057 92 237 4.3 8.7 0.00 0.01 0.01 62 1015.5
20260901170533 91 208 1.7 12.2 0.00 0.01 0.01 63 1015.5
20260901170034 91 186 5.2 11.3 0.00 0.01 0.01 61 1015.5
20260901165554 90 198 3.5 11.3 0.00 0.01 0.01 63 1015.4
20260901165033 90 246 3.5 9.6 0.00 0.01 0.01 63 1015.5
20260901164529 90 180 5.2 10.4 0.00 0.01 0.01 63 1015.7
20260901164030 90 230 3.5 10.4 0.00 0.01 0.01 64 1015.9
20260901163552 90 188 5.2 10.4 0.00 0.01 0.01 64 1015.9
20260901163031 90 218 4.3 13.0 0.00 0.01 0.01 64 1015.9
20260901162532 90 209 6.1 13.0 0.00 0.01 0.01 64 1016.0
20260901162054 89 241 5.2 10.4 0.00 0.01 0.01 66 1016.1
20260901161531 89 192 7.8 10.4 0.00 0.01 0.01 66 1016.1
20260901161030 89 207 5.2 8.7 0.00 0.01 0.01 67 1016.1
20260901160528 88 198 6.1 9.6 0.00 0.01 0.01 70 1016.1
20260901160032 87 211 4.3 9.6 0.00 0.01 0.01 73 1016.1
20260901155527 86 187 5.2 8.7 0.00 0.01 0.01 74 1016.2
20260901155048 85 175 6.1 10.4 0.00 0.01 0.01 75 1016.2
20260901154524 84 180 5.2 8.7 0.00 0.01 0.01 76 1016.2
20260901154044 83 190 7.0 8.7 0.00 0.01 0.01 77 1016.3
20260901153541 82 182 4.3 7.8 0.00 0.01 0.01 78 1016.3
20260901153040 82 207 5.2 8.7 0.00 0.01 0.01 79 1016.4
20260901152603 81 174 6.1 8.7 0.01 0.01 0.01 80 1016.5
20260901152041 81 192 7.0 7.8 0.01 0.01 0.01 80 1016.5
20260901151539 81 178 5.2 7.8 0.01 0.01 0.01 81 1016.5
20260901151038 80 190 3.5 7.0 0.01 0.01 0.01 82 1016.6
20260901150536 80 189 4.3 6.1 0.01 0.01 0.01 83 1016.5
20260901150035 80 161 3.5 7.0 0.01 0.01 0.01 85 1016.6
20260901145537 80 170 5.2 7.8 0.01 0.01 0.01 84 1016.6
20260901145101 79 163 4.3 7.8 0.01 0.01 0.01 83 1016.5
20260901144537 80 144 5.2 7.8 0.01 0.01 0.01 82 1016.5
20260901144036 80 153 6.1 7.8 0.01 0.01 0.01 81 1016.6
20260901143534 81 168 6.1 9.6 0.01 0.01 0.01 81 1016.8
20260901143033 81 157 7.0 9.6 0.01 0.01 0.01 80 1016.8
20260901142530 81 164 5.2 7.8 0.00 0.00 0.00 77 1017.0
20260901142031 81 159 5.2 7.0 0.00 0.00 0.00 78 1016.9
20260901141526 81 151 5.2 8.7 0.00 0.00 0.00 78 1016.9
20260901141026 81 165 5.2 8.7 0.00 0.00 0.00 78 1016.9
20260901140537 81 192 4.3 8.7 0.00 0.00 0.00 78 1016.8
20260901140103 81 166 7.0 9.6 0.00 0.00 0.00 78 1016.8
20260901135538 80 184 6.1 7.8 0.00 0.00 0.00 78 1016.8
20260901135037 80 181 6.1 8.7 0.00 0.00 0.00 79 1016.8
20260901134535 80 175 6.1 9.6 0.00 0.00 0.00 79 1016.7
20260901134034 80 184 6.1 8.7 0.00 0.00 0.00 79 1016.8
20260901133531 80 154 5.2 8.7 0.00 0.00 0.00 79 1016.8
20260901133054 80 140 4.3 7.0 0.00 0.00 0.00 79 1016.8
20260901132554 80 160 4.3 7.0 0.00 0.00 0.00 80 1016.9
20260901132036 80 148 4.3 7.8 0.00 0.00 0.00 80 1016.9
20260901131534 80 134 4.3 9.6 0.00 0.00 0.00 80 1017.0
20260901131033 79 186 4.3 9.6 0.00 0.00 0.00 80 1017.0
20260901130531 79 191 6.1 9.6 0.00 0.00 0.00 81 1017.1
20260901130030 78 169 7.0 9.6 0.00 0.00 0.00 82 1017.1
20260901125529 78 163 7.8 12.2 0.00 0.00 0.00 83 1017.2
20260901125029 77 149 7.0 10.4 0.00 0.00 0.00 83 1017.2
20260901124527 77 172 7.0 9.6 0.00 0.00 0.00 84 1017.3
20260901124046 77 173 7.8 9.6 0.00 0.00 0.00 85 1017.2
20260901123543 76 173 7.0 9.6 0.00 0.00 0.00 85 1017.2
20260901123042 76 158 5.2 8.7 0.00 0.00 0.00 86 1017.2
20260901122539 76 138 4.3 7.8 0.00 0.00 0.00 87 1017.3
20260901122038 75 150 5.2 7.8 0.00 0.00 0.00 87 1017.2
20260901121536 75 164 5.2 8.7 0.00 0.00 0.00 88 1017.1
20260901121035 75 164 4.3 7.0 0.00 0.00 0.00 88 1017.2
20260901120536 75 158 4.3 7.8 0.00 0.00 0.00 88 1017.1
20260901120034 75 141 4.3 7.0 0.00 0.00 0.00 88 1017.1
20260901115532 75 147 3.5 6.1 0.00 0.00 0.00 88 1017.2
20260901115031 74 158 3.5 6.1 0.00 0.00 0.00 88 1017.2
20260901114528 74 141 2.6 4.3 0.00 0.00 0.00 88 1017.1
20260901114027 74 153 3.5 7.0 0.00 0.00 0.00 88 1017.2
20260901113524 74 149 4.3 7.0 0.00 0.00 0.00 88 1017.2
20260901113043 74 156 2.6 6.1 0.00 0.00 0.00 89 1017.2
20260901112540 74 165 3.5 5.2 0.00 0.00 0.00 89 1017.2
20260901112041 74 149 3.5 5.2 0.00 0.00 0.00 89 1017.2
20260901111538 74 165 2.6 6.1 0.00 0.00 0.00 89 1017.2
20260901111037 74 154 3.5 6.1 0.00 0.00 0.00 89 1017.0
20260901110559 74 145 1.7 6.1 0.00 0.00 0.00 89 1017.0